Location: Eschentzwiller
(47.7125°N, 7.3981°E)
Time: 01:28:40
(UTC+00:00)

Cosmos 1300 - Pass Details

Date: 27 October 2020
Orbit: 511 x 513 km, 82.5° (Epoch: 26 November)

Event Time Altitude Azimuth Distance (km) Brightness Sun altitude
Rises 17:36:41 0° 196° (SSW) 2,617 6.6 -13.4°
Reaches altitude 10° 17:38:49 10° 200° (SSW) 1,736 5.7 -13.8°
Maximum altitude 17:42:35 60° 281° (W) 594 3.3 -14.4°
Drops below altitude 10° 17:46:24 10° 3° (N) 1,751 5.3 -15.0°
Sets 17:48:34 0° 7° (N) 2,643 6.2 -15.4°
